Regional Weather Roundup
Issued by NWS

Home | Current Version | Previous Version | Graphics & Text | Print | Product List | Glossary On
Versions: 1 2 3 4 5 6 7 8 9 10 11 12 13 14 15 16 17 18 19 20 21 22 23 24 25 26 27 28 29 30 31 32 33 34 35 36 37 38 39 40 41 42 43 44 45 46 47 48 49 50
000
ASUS45 KCYS 290410
RWRWY

WYOMING REGIONAL WEATHER ROUNDUP
NATIONAL WEATHER SERVICE CHEYENNE WY
1000 PM MDT THU MAY 28 2015

NOTE:  "FAIR" INDICATES FEW OR NO CLOUDS BELOW 12,000 FEET
WITH NO SIGNIFICANT WEATHER AND/OR OBSTRUCTIONS TO VISIBILITY.

WYZ001-290500-
YELLOWSTONE NATIONAL PARK

CITY           SKY/WX    TMP DP  RH WIND       PRES   REMARKS
LK YELLOWSTONE   N/A     41  37  86 VRB3      30.31R
W YELLOWSTONE  NOT AVBL

$$
WYZ002>013-054>058-071-098>099-290500-
NORTHERN WYOMING

CITY           SKY/WX    TMP DP  RH WIND       PRES   REMARKS
JACKSON        FAIR      39  39 100 NW6       30.25R WCI  35
CODY           CLOUDY    50  45  81 N12       30.22R
GREYBULL       MOCLDY    58  45  62 NW28G37   30.11R
WORLAND        MOCLDY    54  45  71 NW12      30.14R
SHERIDAN       CLOUDY    54  48  80 NW17G24   30.16R
BUFFALO        FAIR      52  45  77 NW25G38   30.15R
GILLETTE       CLOUDY    53  48  83 NW12      30.11R
HULETT         MOCLDY    55  50  82 CALM      30.10R
NEWCASTLE      FAIR      52  50  93 NW9       30.08R

$$
WYZ014>020-022>026-101>103-290500-
CENTRAL WYOMING

CITY           SKY/WX    TMP DP  RH WIND       PRES   REMARKS
BIG PINEY      FAIR      45  38  76 N12       30.23R
PINEDALE       FAIR      43  37  81 W13       30.23R
DUBOIS         CLOUDY    45  36  70 MISG      30.23R
LANDER         CLOUDY    51  40  65 SW7       30.17R
RIVERTON       CLOUDY    50  40  68 N12       30.19R
CASPER         CLOUDY    50  44  80 N5        30.16R
DOUGLAS        MOCLDY    54  48  80 CALM      30.13R

$$
WYZ021-027>030-104>119-290500-
SOUTHERN WYOMING

CITY           SKY/WX    TMP DP  RH WIND       PRES   REMARKS
EVANSTON       FAIR      49  37  63 NE3       30.26R
KEMMERER       FAIR      41  36  81 N8        30.26R
FORT BRIDGER   CLEAR     46  41  81 W8        30.28R
ROCK SPRINGS   FAIR      46  39  76 W12       30.22R
DIXON          MOCLDY    47  39  74 CALM      30.26R
RAWLINS        FAIR      49  38  65 W13       30.20R
SARATOGA       FAIR      43  37  81 SW8       30.23R
LARAMIE        MOCLDY    47  37  68 CALM      30.21R
CHEYENNE       MOCLDY    54  37  52 N6        30.16R
TORRINGTON     CLOUDY    57  50  77 N9        30.07R
PINE BLUFFS    MOCLDY    54  46  76 N9        30.11R

$$



USA.gov is the U.S. government's official web portal to all federal, state and local government web resources and services.